Theta_e
322 319 319 318 312 308 307 306 306 305 304 304 304 304 305 305 304 305 304 304 305 304 303 302 301 301 301 301 301 302 303 304 303 302 302 301 301 301 301 302 304 305 305
320 316 317 313 311 308 306 306 307 307 306 306 306 305 305 306 305 305 305 305 305 305 304 303 302 301 301 300 300 301 302 304 303 302 302 301 301 300 300 301 304 304 303
318 315 314 311 308 307 307 307 307 307 307 307 307 307 306 306 306 306 306 305 305 305 304 304 302 302 301 301 301 301 300 300 301 300 300 299 299 299 299 300 303 303 303
316 315 313 308 308 307 308 308 307 308 307 307 307 306 306 306 306 306 306 305 305 305 304 303 301 300 301 302 301 300 301 300 300 300 299 299 299 298 298 298 301 302 303
317 314 309 309 309 308 308 308 307 307 307 305 305 306 306 306 306 306 306 306 305 305 304 301 301 300 299 299 299 300 301 300 300 299 298 298 298 298 298 298 300 302 303
316 309 309 309 309 308 308 307 306 306 304 304 305 305 306 305 305 307 307 307 306 303 302 301 301 299 297 297 298 298 299 299 298 298 298 297 298 298 297 297 299 302 303
310 308 309 309 309 308 308 306 305 304 304 304 305 305 304 305 304 304 304 303 302 301 302 301 301 299 298 298 298 296 296 296 297 297 297 298 298 297 296 298 302 302 304
309 309 310 309 309 308 306 305 305 303 304 305 305 304 304 304 304 304 302 301 301 302 302 301 302 301 300 299 298 297 296 296 296 297 296 296 297 297 297 299 301 304 305
309 310 310 309 306 307 306 305 305 305 305 305 304 304 304 304 304 303 302 301 301 302 303 303 302 301 301 300 299 298 297 296 295 296 296 296 296 296 296 299 301 304 304
309 310 308 305 307 307 306 305 305 305 305 305 305 304 304 304 304 302 301 300 300 301 303 303 303 301 301 301 300 299 298 296 295 296 297 296 295 295 295 298 301 303 304
309 304 307 308 308 308 305 304 304 304 304 305 305 305 304 304 303 301 301 300 300 301 302 302 303 302 302 301 300 299 298 297 296 295 295 295 295 295 296 297 300 302 303
304 307 308 307 306 306 305 304 304 305 306 306 306 305 304 304 302 301 301 300 299 300 301 301 302 302 302 301 300 300 299 298 296 296 296 296 296 296 297 299 301 302 303
306 306 306 307 306 304 304 304 304 305 306 306 305 304 304 303 302 301 301 300 300 300 301 301 301 301 302 301 300 300 299 298 297 296 296 296 296 297 297 299 301 302 303
306 306 306 305 304 304 304 304 305 305 305 305 305 304 302 301 301 301 301 300 300 301 301 301 301 301 301 301 300 299 299 298 297 296 296 296 296 297 298 299 301 302 304
306 306 305 303 302 302 304 305 305 304 305 305 303 302 301 301 300 300 300 301 301 301 300 300 300 300 300 300 299 298 298 297 297 297 296 296 296 297 298 300 300 301 302
306 304 304 304 305 305 305 305 304 304 305 303 302 301 301 300 300 301 300 300 300 300 299 299 299 299 298 298 297 297 297 296 296 296 297 296 296 297 298 300 300 301 302
305 304 304 304 303 305 305 304 304 304 304 303 302 301 301 300 299 299 299 300 300 299 299 299 299 298 297 296 296 295 295 295 295 296 296 296 296 297 298 299 300 301 302
306 304 304 304 304 305 305 304 304 304 304 303 302 301 301 299 298 298 299 299 299 299 299 299 298 297 296 295 295 294 294 294 294 294 295 295 296 297 297 298 300 301 302
305 303 305 305 305 305 304 304 304 304 303 302 302 302 300 299 299 300 300 300 299 300 299 298 297 296 295 294 293 293 293 293 293 294 294 295 295 296 297 297 300 301 302
303 305 305 305 305 304 303 304 305 303 303 302 302 301 300 299 299 300 300 300 299 299 298 297 296 295 293 293 293 292 293 293 293 293 294 295 296 295 296 298 299 300 302
304 304 305 305 304 303 302 305 304 303 302 302 301 300 299 298 298 299 299 300 298 298 297 295 294 294 293 293 293 293 293 293 293 293 294 295 296 296 297 298 300 301 302
304 304 304 303 302 302 303 304 303 303 302 301 300 300 298 298 299 299 300 299 299 297 296 295 295 294 293 294 294 294 295 295 294 293 294 295 296 297 298 299 300 300 301
304 304 304 303 302 301 304 304 303 302 301 300 299 298 298 298 299 299 299 299 298 297 296 295 295 295 295 295 296 296 297 296 296 295 295 295 297 298 299 300 300 301 302
304 304 303 302 302 302 303 302 302 301 299 298 298 297 298 299 299 299 299 298 297 297 296 296 296 296 296 297 297 298 298 298 297 296 295 296 298 299 300 301 301 302 302
304 303 302 300 302 302 302 301 300 297 297 298 297 298 299 300 300 299 299 297 297 296 296 296 297 297 297 297 298 298 298 298 297 297 296 297 298 299 300 301 302 303 304
303 301 298 300 301 300 299 297 295 297 298 297 298 299 300 300 299 299 298 297 297 297 297 297 297 298 298 298 298 298 298 298 297 297 298 297 298 299 301 301 301 303 303
Wind_Speed
10 8 7 7 9 9 10 10 11 12 10 10 12 11 11 11 11 15 19 20 22 23 22 22 19 19 20 21 21 21 22 21 29 32 28 27 28 28 25 22 22 22 24
7 6 7 7 7 9 9 9 8 10 9 11 13 14 14 12 13 16 19 21 25 25 26 26 21 21 23 23 25 23 22 22 27 28 28 31 31 30 29 26 22 21 24
7 7 7 6 6 7 7 7 9 10 11 13 14 16 16 15 15 17 20 22 25 26 30 30 29 25 27 26 23 24 23 24 26 30 31 27 28 26 28 24 21 21 21
8 8 6 4 4 6 6 8 9 11 13 15 15 16 16 17 17 17 21 24 26 27 31 33 30 27 26 26 24 25 25 24 25 26 28 29 28 26 26 25 24 21 22
8 8 6 3 3 5 7 9 12 13 14 17 13 12 16 19 20 21 22 24 26 28 30 31 29 27 22 20 21 21 20 23 25 27 30 29 29 25 25 27 24 25 21
7 7 6 5 6 7 9 12 14 11 13 10 11 15 18 22 24 22 22 22 21 27 32 27 25 25 20 19 21 22 21 23 25 25 23 23 22 24 25 25 22 22 26
7 7 5 5 6 8 11 13 11 11 8 10 15 16 18 21 19 21 23 22 24 26 23 22 24 21 22 24 23 23 21 19 18 19 21 20 21 21 21 23 20 18 20
7 6 5 6 9 12 11 11 11 8 8 13 17 16 19 22 23 27 24 24 23 21 20 19 23 23 23 24 24 24 21 19 17 13 15 19 18 17 19 19 18 15 14
6 5 5 9 10 10 12 8 8 10 12 15 18 18 21 22 26 28 28 27 24 21 21 19 23 23 22 23 24 24 22 18 15 14 14 12 14 15 17 17 11 8 13
5 5 8 6 8 9 10 9 9 12 16 19 21 22 21 22 25 29 27 29 25 22 19 22 24 22 22 23 23 21 23 20 19 14 13 14 16 16 16 13 11 8 10
5 4 4 6 8 10 11 10 13 16 18 20 20 21 19 23 26 25 23 28 27 23 23 26 27 22 22 21 21 19 19 18 17 16 15 15 14 12 9 9 11 9 9
3 4 6 7 7 9 10 11 13 16 17 19 18 16 19 24 26 23 22 23 24 24 22 25 27 25 23 21 20 18 17 15 14 14 14 14 12 9 6 5 10 8 9
3 5 5 7 10 9 9 12 13 15 19 18 15 18 24 28 23 22 23 23 23 22 23 23 25 25 23 22 19 18 17 16 14 14 13 12 9 8 7 6 4 6 5
4 4 7 9 6 9 8 12 15 18 20 13 16 23 28 27 24 28 28 25 21 19 23 23 25 25 25 23 21 19 17 15 13 13 11 10 8 6 6 4 3 1 3
3 5 5 8 9 5 8 14 17 21 15 15 21 24 29 31 30 30 26 22 18 20 25 25 27 29 30 25 23 21 17 14 13 12 11 8 7 5 4 3 2 3 2
3 5 7 5 6 9 11 13 18 14 13 18 20 22 29 30 29 26 24 23 22 21 25 26 28 29 30 26 24 22 17 15 13 11 10 9 7 5 4 2 2 1 2
2 3 3 6 9 10 11 16 16 15 16 21 23 23 32 33 28 26 24 24 22 20 23 26 28 28 27 26 24 21 19 16 13 11 10 9 7 6 3 2 0 1 1
2 4 7 10 11 11 13 15 15 15 21 27 22 28 34 31 26 28 27 24 22 19 22 25 27 27 28 25 23 22 19 15 13 11 9 8 7 8 5 3 2 2 2
2 5 8 9 10 11 14 15 14 18 24 27 26 30 35 31 27 29 29 26 26 25 26 28 27 27 27 25 22 21 18 15 12 10 8 8 8 10 7 4 4 4 5
2 3 7 9 9 12 16 13 13 20 23 23 27 33 37 31 31 33 32 29 28 28 29 28 28 27 26 25 21 18 16 13 10 8 8 7 9 10 8 5 5 6 8
2 7 9 9 11 14 16 12 16 20 21 24 29 34 34 29 30 33 34 32 31 30 29 29 27 25 24 21 19 15 13 9 6 6 7 7 10 11 9 7 8 7 10
4 8 10 10 12 17 14 11 18 20 22 27 32 36 34 28 31 34 33 33 33 31 29 27 26 23 21 18 15 12 9 7 4 4 8 9 11 11 12 10 10 10 11
6 9 11 13 16 19 13 12 18 22 25 29 33 34 31 31 33 34 33 34 33 32 29 27 25 22 18 13 11 11 9 7 3 3 9 12 14 15 14 14 11 13 12
7 11 13 16 16 17 16 18 21 24 28 30 31 30 30 33 34 33 34 33 32 30 28 26 23 21 17 11 10 11 12 9 4 3 10 16 19 19 17 15 15 14 19
7 13 17 14 15 16 18 21 24 26 27 30 28 30 32 34 33 34 33 32 30 29 27 25 23 21 18 14 13 12 11 8 9 8 13 19 23 22 19 18 18 18 20
11 15 14 13 15 18 21 23 24 25 29 28 28 30 31 33 33 33 32 31 30 29 28 26 25 22 18 17 16 12 13 11 11 14 17 20 24 24 20 19 18 17 17
Wind_Direction
226 235 262 296 307 305 313 319 327 337 337 340 333 330 333 334 338 348 349 351 349 352 354 348 336 325 324 322 317 305 300 296 301 303 305 314 318 322 320 319 312 315 316
228 261 285 300 301 307 319 332 337 351 346 344 345 341 332 329 331 328 333 336 338 338 342 341 332 330 327 323 320 314 305 304 300 305 311 312 312 314 313 311 313 315 319
237 256 279 291 309 329 337 345 352 340 334 335 330 331 330 329 325 327 327 325 327 327 332 330 329 316 314 320 311 312 310 305 299 303 310 316 318 318 312 303 315 318 315
241 263 276 296 327 344 339 338 337 321 317 319 321 323 326 328 327 329 323 319 320 322 323 326 325 317 309 315 310 305 303 306 310 311 312 315 316 321 321 314 313 325 325
248 262 270 264 302 328 323 315 319 315 318 319 319 324 327 322 317 315 314 317 315 316 319 325 327 326 314 308 312 311 306 305 309 311 310 311 316 320 320 326 316 325 328
244 251 245 266 287 297 303 317 315 317 323 326 329 324 324 327 321 317 316 316 314 316 321 327 334 343 348 333 322 313 304 302 305 309 309 310 312 312 321 320 317 327 330
231 232 252 278 288 301 308 314 322 320 320 329 323 323 335 346 343 334 329 324 317 320 324 332 339 338 338 332 329 331 321 314 302 293 302 305 300 313 318 321 326 319 320
227 244 260 293 303 304 309 316 326 318 322 323 324 320 328 337 340 341 339 332 329 329 332 329 332 334 336 334 330 333 334 326 322 306 310 308 307 312 309 305 316 305 316
243 244 275 300 300 307 318 316 327 322 320 319 323 316 323 332 338 344 342 337 332 335 337 325 317 326 332 332 331 331 323 329 319 311 311 302 309 303 307 298 323 322 330
239 279 298 295 311 322 332 329 328 320 317 319 318 314 316 325 335 341 337 337 333 335 335 334 331 330 326 330 329 326 325 326 326 324 316 318 316 307 292 292 312 326 0
268 285 291 306 313 316 322 323 325 322 322 320 317 310 312 325 333 329 326 334 334 331 335 331 340 333 327 326 320 323 326 328 326 318 319 328 325 315 289 278 290 309 309
256 285 301 310 322 316 315 323 323 328 331 331 325 311 320 330 329 326 322 329 329 325 325 328 338 338 328 319 318 317 318 320 316 314 318 329 334 331 326 267 279 283 300
285 308 319 314 319 327 325 324 324 331 331 327 321 320 325 326 329 326 322 318 325 319 321 323 335 333 331 327 319 317 314 315 316 322 319 325 327 330 331 322 290 284 256
311 322 329 335 320 313 311 324 330 333 330 323 327 327 329 332 329 328 327 319 317 312 317 320 329 332 334 325 324 323 320 313 309 312 320 317 314 322 332 330 329 291 242
335 349 0 336 336 350 327 327 333 335 332 335 334 336 343 335 329 325 324 327 317 312 312 321 323 329 334 332 332 328 323 317 307 304 306 302 299 303 327 337 313 342 285
33 34 16 34 6 332 330 338 341 347 341 344 341 340 344 334 330 328 321 312 309 311 312 317 319 325 331 331 329 325 320 314 307 295 295 284 277 272 312 339 331 351 42
77 27 20 343 340 333 342 342 348 349 348 344 343 343 346 342 344 343 333 315 312 308 309 312 317 325 328 328 326 323 318 312 305 295 278 277 247 233 281 301 26 70 140
295 330 324 326 319 325 334 342 340 342 349 348 346 346 348 352 351 350 347 343 341 336 325 324 325 325 326 326 326 322 315 307 301 293 276 254 222 217 233 246 149 120 111
292 321 336 329 331 333 335 342 337 349 350 348 341 345 347 349 350 350 349 347 341 336 332 330 328 325 327 329 325 321 313 306 293 284 275 242 221 208 215 209 163 141 134
324 327 337 334 335 339 343 341 341 345 344 342 343 345 346 345 347 349 350 347 343 339 335 332 331 331 331 329 325 319 314 308 291 268 254 233 209 197 198 183 164 147 138
307 320 337 344 341 346 353 342 335 336 340 339 341 343 347 344 344 350 349 346 344 343 339 338 337 336 336 331 329 328 324 320 297 251 230 215 196 192 178 166 156 148 151
333 339 337 345 344 346 353 329 333 339 338 337 338 341 346 347 349 351 347 345 346 346 347 345 345 345 342 341 344 345 341 328 304 235 210 196 182 173 164 152 142 144 147
325 349 344 334 337 348 351 340 341 340 339 338 338 343 349 351 353 352 348 347 350 351 354 354 352 353 356 3 3 351 351 350 333 219 194 182 167 157 151 143 137 137 129
341 349 346 341 345 357 356 349 344 341 340 342 345 351 353 354 354 353 352 353 357 360 1 2 3 2 4 6 5 7 9 14 18 158 173 167 156 152 147 138 128 117 136
345 344 346 352 354 359 354 349 346 347 350 351 357 357 354 356 357 357 358 360 4 7 10 12 14 15 17 19 19 13 11 35 44 130 153 153 150 149 145 135 133 118 133
345 348 354 355 356 354 352 352 354 355 356 0 1 358 356 358 359 1 2 6 10 13 15 19 20 21 25 28 26 36 42 61 67 121 138 146 149 148 143 133 135 129 127